Weather in Staraya Stanitsa

Russia / Rostov Oblast     48°20′57″N   40°16′52″E
temp.,
°C
wind,
m/s
gust,
m/s
humid.,
%
clouds,
%
prec.,
mm/h
press.,
hPa
HPBL,
m
15 may, sat
sat1500:00+18sse3385100 0.0 101122
03:00+17wsw1187100 0.0 101111
06:00+18wsw1189100 1.1 101250
09:00+21nnw346038 1.9 1013421
12:00+26n224432 0.0 1013938
15:00+27nnw11385 0.0 10131558
18:00+27n11485 0.0 1013136
21:00+20nw11564 0.0 101311
16 may, sun
sun1600:00+18nnw22704 0.0 101311
03:00+16n227998 0.0 101326
06:00+17nne2585100 0.0 1012136
09:00+22ene4561100 0.0 1012469
12:00+25ese6839100 0.0 1012836
15:00+27ese7104097 0.0 10101232
18:00+24e51054100 0.0 1009325
21:00+19e41166100 0.0 1008165
17 may, mon
mon1700:00+20ese6164932 0.0 1008356
03:00+16e516575 0.0 1007326
06:00+16ese516565 0.0 1007441
09:00+22se8134824 0.0 1008805
12:00+24se8104675 0.0 10081030
15:00+26sse78451 0.0 10081376
18:00+25sse465858 0.0 1007387
21:00+19ssw3580100 0.0 100870
18 may, tue
tue1800:00+16sw378956 0.4 1009172
03:00+15sw229179 1.8 100940
06:00+16wsw488990 0.6 1010300
09:00+18w577225 0.6 1010565
12:00+21w44635 0.0 1011807
15:00+24sw4450100 0.0 10101999
18:00+21sw6863100 0.0 1010652
21:00+16sw49825 0.0 1011201
19 may, wed
wed1900:00+14sw411867 0.0 1011260
03:00+14ssw512865 0.0 1011318
06:00+14sw5118975 0.0 1011383
09:00+18ssw7107416 0.0 1011844
12:00+20ssw81065100 0.1 10111127
15:00+18sw61077100 0.1 1012771
18:00+20sw576699 0.1 10121041
21:00+15sw4784100 0.2 1014180